Weather History for Bolton Field, OH

Change the Weather History Date:

Monday, January 7, 2013

  Actual Average Record
Temperature  
Mean Temperature 28 °F -  
Max Temperature 33 °F 36 °F 66 °F (2008)
Min Temperature 19 °F 24 °F -8 °F (2014)
Degree Days  
Heating Degree Days 37    
Moisture  
Dew Point 24 °F    
Average Humidity 86    
Maximum Humidity 95    
Minimum Humidity 70    
Precipitation  
Precipitation 0.00 in - - ()
Sea Level Pressure  
Sea Level Pressure 30.34 in    
Wind  
Wind Speed 5 mph (SSW)    
Max Wind Speed 9 mph    
Max Gust Speed -    
Visibility 7 miles    
Events      
Averages and records for this station are not official NWS values.
T = Trace of Precipitation, MM = Missing Value Source: NWS Daily Summary

Daily Weather History Graph

Daily Weather History Graph

Search for Another Location

Airport:

Trip Planner

Search our weather history database for the weather conditions in past years. The results will help you decide how hot, cold, wet, or windy it might be!

Date:

Astronomy

Jan. 07, 2013 Rise Set
Actual Time 7:54 AM EST 5:24 PM EST
Civil Twilight 7:24 AM EST 5:54 PM EST
Nautical Twilight 6:50 AM EST 6:27 PM EST
Astronomical Twilight 6:17 AM EST 7:00 PM EST
Moon 3:16 AM EST (1/7) 1:34 PM EST (1/7)
Length of Visible Light 10h 30m
Length of Day
9h 29m
Waning Crescent, 23% of the Moon is Illuminated
Jan 7
Waning Crescent
Jan 11
New
Jan 18
First Quarter
Jan 26
Full
Feb 3
Last Quarter

Hourly Weather History & Observations

Time (EST) Temp. Windchill Dew Point Humidity Pressure Visibility Wind Dir Wind Speed Gust Speed Precip Events Conditions
12:35 AM 27.9 °F 19.1 °F 23.9 °F 85% 30.31 in 7.0 mi West 9.2 mph - N/A   Overcast
12:55 AM 28.0 °F 20.8 °F 24.3 °F 86% 30.33 in 7.0 mi West 6.9 mph - N/A   Overcast
1:15 AM 28.0 °F 21.7 °F 24.3 °F 86% 30.33 in 7.0 mi West 5.8 mph - N/A   Overcast
1:35 AM 28.2 °F 21.0 °F 24.3 °F 85% 30.33 in 7.0 mi West 6.9 mph - N/A   Overcast
1:55 AM 28.2 °F 22.0 °F 24.4 °F 86% 30.33 in 7.0 mi West 5.8 mph - N/A   Overcast
2:15 AM 28.4 °F 22.2 °F 24.3 °F 84% 30.33 in 7.0 mi West 5.8 mph - N/A   Overcast
2:35 AM 28.2 °F 21.0 °F 24.4 °F 86% 30.34 in 7.0 mi West 6.9 mph - N/A   Overcast
2:55 AM 28.2 °F - 24.4 °F 86% 30.33 in 7.0 mi North - - N/A   Overcast
3:15 AM 28.2 °F - 24.6 °F 86% 30.34 in 7.0 mi North - - N/A   Overcast
3:35 AM 28.2 °F - 24.6 °F 86% 30.35 in 7.0 mi North - - N/A   Overcast
3:55 AM 28.0 °F - 24.4 °F 86% 30.36 in 7.0 mi North - - N/A   Overcast
4:15 AM 28.0 °F 24.2 °F 24.6 °F 87% 30.36 in 7.0 mi WSW 3.5 mph - N/A   Overcast
4:35 AM 28.0 °F 24.2 °F 24.6 °F 87% 30.36 in 7.0 mi WSW 3.5 mph - N/A   Overcast
4:55 AM 27.5 °F - 24.6 °F 89% 30.37 in 7.0 mi North - - N/A   Overcast
5:15 AM 27.3 °F - 24.4 °F 89% 30.38 in 7.0 mi Calm Calm - N/A   Overcast
5:35 AM 27.3 °F - 24.3 °F 88% 30.37 in 7.0 mi Calm Calm - N/A   Overcast
5:55 AM 27.0 °F 23.0 °F 24.3 °F 90% 30.37 in 5.0 mi South 3.5 mph - N/A   Overcast
6:15 AM 25.9 °F - 23.5 °F 91% 30.38 in 5.0 mi North - - N/A   Overcast
6:35 AM 24.4 °F - 22.8 °F 94% 30.39 in 4.0 mi North - - N/A   Overcast
6:55 AM 23.4 °F - 21.6 °F 93% 30.41 in 4.0 mi Calm Calm - N/A   Overcast
7:20 AM 24.8 °F - 21.2 °F 86% 30.41 in 4.0 mi Calm Calm - N/A   Overcast
7:55 AM 24.8 °F 19.1 °F 21.2 °F 86% 30.43 in 4.0 mi SSW 4.6 mph - N/A   Overcast
8:50 AM 26.6 °F - 23.0 °F 86% 30.45 in 4.0 mi Calm Calm - N/A   Overcast
9:58 AM 26.6 °F 20.0 °F 24.8 °F 93% 30.46 in 4.0 mi SSW 5.8 mph - N/A   Overcast
10:50 AM 30.2 °F - 24.8 °F 80% 30.46 in 5.0 mi Calm Calm - N/A   Haze
11:50 AM 32.0 °F 26.4 °F 24.8 °F 75% 30.44 in 7.0 mi SSE 5.8 mph - N/A   Clear
12:47 PM 32.0 °F 25.6 °F 24.8 °F 75% 30.40 in 7.0 mi SSE 6.9 mph - N/A   Clear
2:47 PM 33.8 °F 27.0 °F 24.8 °F 70% 30.36 in 7.0 mi SE 8.1 mph - N/A   Clear
3:50 PM 33.8 °F 29.6 °F 24.8 °F 70% 30.36 in 10.0 mi SSE 4.6 mph - N/A   Clear
4:50 PM 32.0 °F 27.5 °F 24.8 °F 75% 30.35 in 10.0 mi SSE 4.6 mph - N/A   Clear
6:50 PM 28.4 °F 23.3 °F 24.8 °F 86% 30.31 in 10.0 mi SSE 4.6 mph - N/A   Clear
8:15 PM 28.2 °F 23.1 °F 23.0 °F 81% 30.30 in 10.0 mi SSE 4.6 mph - N/A   Clear
8:35 PM 28.0 °F 21.7 °F 22.8 °F 81% 30.29 in 10.0 mi SSE 5.8 mph - N/A   Clear
8:55 PM 28.2 °F 22.0 °F 22.5 °F 79% 30.28 in 10.0 mi SE 5.8 mph - N/A   Clear
9:15 PM 28.2 °F 23.1 °F 22.6 °F 80% 30.28 in 10.0 mi SE 4.6 mph - N/A   Clear
9:35 PM 26.6 °F - 22.6 °F 85% 30.27 in 10.0 mi Calm Calm - N/A   Clear
9:55 PM 25.5 °F - 22.5 °F 88% 30.26 in 7.0 mi Calm Calm - N/A   Clear
10:15 PM 25.9 °F 21.7 °F 23.0 °F 89% 30.26 in 7.0 mi SE 3.5 mph - N/A   Clear
10:35 PM 24.4 °F 20.1 °F 22.6 °F 93% 30.25 in 7.0 mi SE 3.5 mph - N/A   Clear
10:55 PM 23.4 °F - 21.7 °F 94% 30.26 in 7.0 mi Calm Calm - N/A   Clear
11:15 PM 25.0 °F - 23.2 °F 93% 30.26 in 5.0 mi Calm Calm - N/A   Clear
11:35 PM 24.8 °F - 22.6 °F 91% 30.26 in 7.0 mi Calm Calm - N/A   Clear
11:55 PM 19.2 °F - 18.0 °F 95% 30.26 in 3.0 mi Calm Calm - N/A   Clear